Change the Weather History Date:

Sunday, May 5, 2013

  Actual Average (KISQ) Record (KISQ)
Temperature  
Mean Temperature 40 °F -  
Max Temperature 44 °F 56 °F 79 °F (1949)
Min Temperature 37 °F 36 °F 21 °F (1958)
Degree Days  
Heating Degree Days 24    
Moisture  
Dew Point 34 °F    
Average Humidity 82    
Maximum Humidity 89    
Minimum Humidity 71    
Precipitation  
Precipitation 0.00 in - - ()
Sea Level Pressure  
Sea Level Pressure 30.17 in    
Wind  
Wind Speed 7 mph (NNW)    
Max Wind Speed 13 mph    
Max Gust Speed 22 mph    
Averages and records for this station are not official NWS values.
T = Trace of Precipitation, MM = Missing Value Source: NWS Daily Summary

Daily Weather History Graph

Daily Weather History Graph

Search for Another Location

Airport or City:

Trip Planner

Search our weather history database for the weather conditions in past years. The results will help you decide how hot, cold, wet, or windy it might be!

Date:

Astronomy

May. 05, 2013 Rise Set
Actual Time 6:26 AM EDT 9:01 PM EDT
Civil Twilight 5:52 AM EDT 9:35 PM EDT
Nautical Twilight 5:09 AM EDT 10:18 PM EDT
Astronomical Twilight 4:20 AM EDT 11:08 PM EDT
Moon 4:11 AM EDT (5/5) 4:47 PM EDT (5/5)
Length of Visible Light 15h 43m
Length of Day
14h 35m
Waning Crescent, 18% of the Moon is Illuminated
May 5
Waning Crescent
May 9
New
May 18
First Quarter
May 25
Full
May 31
Last Quarter

Hourly Weather History & Observations

Time (EDT) Temp. Windchill Dew Point Humidity Pressure Visibility Wind Dir Wind Speed Gust Speed Precip Events Conditions
12:56 AM 37.9 °F 33.5 °F 34.0 °F 86% 30.21 in - North 5.8 mph - N/A   Unknown
1:56 AM 37.9 °F 33.5 °F 34.0 °F 86% 30.20 in - North 5.8 mph - N/A   Unknown
2:56 AM 37.9 °F 33.5 °F 34.0 °F 86% 30.18 in - Variable 5.8 mph - N/A   Unknown
3:56 AM 37.0 °F - 33.1 °F 86% 30.18 in - Calm Calm - N/A   Unknown
4:56 AM 37.0 °F 32.4 °F 33.1 °F 86% 30.18 in - NNW 5.8 mph - N/A   Unknown
5:56 AM 37.0 °F 33.3 °F 33.1 °F 86% 30.18 in - NNW 4.6 mph - N/A   Unknown
6:56 AM 37.0 °F 32.4 °F 33.1 °F 86% 30.19 in - NNW 5.8 mph - N/A   Unknown
7:56 AM 37.9 °F 33.5 °F 33.1 °F 83% 30.19 in - NNW 5.8 mph - N/A   Unknown
8:56 AM 39.0 °F 35.7 °F 33.1 °F 79% 30.19 in - NNW 4.6 mph - N/A   Unknown
9:56 AM 39.9 °F 33.4 °F 34.0 °F 79% 30.19 in - North 10.4 mph - N/A   Unknown
10:56 AM 39.9 °F 33.4 °F 34.0 °F 79% 30.20 in - NNW 10.4 mph - N/A   Unknown
11:56 AM 39.9 °F 32.5 °F 34.0 °F 79% 30.20 in - NNW 12.7 mph - N/A   Unknown
12:56 PM 41.0 °F 35.2 °F 34.0 °F 76% 30.20 in - North 9.2 mph - N/A   Unknown
1:56 PM 43.0 °F 38.8 °F 35.1 °F 74% 30.19 in - NNE 6.9 mph - N/A   Unknown
2:56 PM 42.1 °F 36.6 °F 35.1 °F 76% 30.18 in - North 9.2 mph - N/A   Unknown
3:56 PM 44.1 °F 39.5 °F 35.1 °F 71% 30.17 in - North 8.1 mph - N/A   Unknown
4:56 PM 43.0 °F 37.7 °F 35.1 °F 74% 30.15 in - NNW 9.2 mph - N/A   Unknown
5:56 PM 41.0 °F 35.8 °F 35.1 °F 79% 30.14 in - NE 8.1 mph - N/A   Unknown
6:56 PM 39.9 °F 35.8 °F 34.0 °F 79% 30.14 in - North 5.8 mph - N/A   Unknown
7:56 PM 39.9 °F 33.9 °F 34.0 °F 79% 30.15 in - NNW 9.2 mph - N/A   Unknown
8:56 PM 37.9 °F 32.7 °F 34.0 °F 86% 30.15 in - NNW 6.9 mph - N/A   Unknown
9:56 PM 37.9 °F 32.7 °F 34.0 °F 86% 30.15 in - NNW 6.9 mph - N/A   Unknown
10:45 PM 37.4 °F - 33.8 °F 87% 30.14 in - North - - N/A   Unknown
10:56 PM 37.9 °F 31.5 °F 34.0 °F 86% 30.16 in - NW 9.2 mph 21.9 mph N/A   Unknown
11:56 PM 37.0 °F 31.6 °F 34.0 °F 89% 30.15 in - NNW 6.9 mph - N/A   Unknown